KQ4NAL Weather Reports


time (UTC)temp
C
wind
direction
speed
KPH
gust
KPH
rain 1hr
cm
rain 24hr
cm
rain mn
cm
humidity
%
barometer
mb
20260903011402 25 347 0.0 0.0 0.00 0.00 0.00 90 1017.4
20260903010857 25 346 0.0 0.0 0.00 0.00 0.00 89 1017.3
20260903010353 25 346 0.0 0.0 0.00 0.00 0.00 88 1017.3
20260903005851 26 346 0.0 0.0 0.00 0.00 0.00 88 1017.3
20260903005346 26 346 0.0 0.0 0.00 0.00 0.00 87 1017.2
20260903004842 26 346 0.0 0.0 0.00 0.00 0.00 87 1017.2
20260903004338 26 346 0.0 0.0 0.00 0.00 0.00 86 1017.1
20260903003833 26 346 0.0 0.0 0.00 0.00 0.00 85 1017.2
20260903003327 27 346 0.0 0.0 0.00 0.00 0.00 84 1017.0
20260903002827 27 347 0.0 0.0 0.00 0.00 0.00 84 1016.9
20260903002322 27 346 0.0 0.0 0.00 0.00 0.00 84 1017.0
20260903001817 27 346 0.0 0.0 0.00 0.00 0.00 83 1016.9
20260903001312 27 346 0.0 0.0 0.00 0.00 0.00 81 1017.1
20260903000812 28 346 0.0 0.0 0.00 0.00 0.00 81 1017.0
20260903000306 28 345 0.0 0.0 0.00 0.00 0.00 80 1017.1
20260902235804 28 343 0.0 0.0 0.00 0.00 0.00 78 1017.0
20260902235300 29 346 0.0 0.0 0.00 0.00 0.00 76 1017.0
20260902234754 30 346 0.0 0.0 0.00 0.00 0.00 75 1017.2
20260902234254 30 347 0.0 0.0 0.00 0.00 0.00 73 1017.2
20260902233754 30 340 0.0 0.0 0.00 0.00 0.00 72 1017.1
20260902233253 31 341 0.0 0.0 0.00 0.00 0.00 70 1017.1
20260902232746 31 341 0.0 0.0 0.00 0.00 0.00 66 1017.2
20260902232241 32 329 0.0 0.0 0.00 0.00 0.00 63 1017.0
20260902231740 32 325 0.0 0.0 0.00 0.00 0.00 62 1017.4
20260902231236 32 331 0.0 0.0 0.00 0.00 0.00 61 1017.1
20260902230736 32 342 1.6 3.2 0.00 0.00 0.00 60 1017.4
20260902230235 33 235 0.0 0.0 0.00 0.00 0.00 60 1017.4
20260902225730 33 290 0.0 0.0 0.00 0.00 0.00 58 1017.4
20260902225225 33 314 4.8 4.8 0.00 0.00 0.00 57 1017.2
20260902224723 33 236 3.2 4.8 0.00 0.00 0.00 57 1017.3
20260902224219 33 280 4.8 4.8 0.00 0.00 0.00 57 1017.4
20260902223715 34 282 0.0 0.0 0.00 0.00 0.00 58 1017.4
20260902223214 33 316 0.0 0.0 0.00 0.00 0.00 57 1017.3
20260902222713 33 332 4.8 8.0 0.00 0.00 0.00 56 1017.3
20260902222213 33 208 8.0 11.3 0.00 0.00 0.00 55 1017.6
20260902221707 34 242 4.8 4.8 0.00 0.00 0.00 57 1017.2
20260902221206 34 251 3.2 4.8 0.00 0.00 0.00 55 1017.3
20260902220703 34 321 1.6 1.6 0.00 0.00 0.00 56 1017.3
20260902220203 34 227 6.4 8.0 0.00 0.00 0.00 56 1017.2
20260902215658 35 276 6.4 8.0 0.00 0.00 0.00 53 1017.1
20260902215154 35 266 1.6 1.6 0.00 0.00 0.00 55 1017.7
20260902214649 35 269 4.8 8.0 0.00 0.00 0.00 52 1017.2
20260902214148 34 317 3.2 4.8 0.00 0.00 0.00 54 1017.6
20260902213643 35 233 6.4 9.7 0.00 0.00 0.00 53 1017.4
20260902213143 35 221 6.4 8.0 0.00 0.00 0.00 53 1017.3
20260902212638 34 259 3.2 4.8 0.00 0.00 0.00 55 1017.6
20260902212134 34 214 6.4 8.0 0.00 0.00 0.00 54 1017.2
20260902211631 35 184 6.4 8.0 0.00 0.00 0.00 54 1017.4
20260902211125 35 180 8.0 9.7 0.00 0.00 0.00 53 1017.6
20260902210625 35 330 3.2 4.8 0.00 0.00 0.00 53 1017.6
20260902210120 35 221 11.3 12.9 0.00 0.00 0.00 53 1017.6
20260902205619 35 254 6.4 9.7 0.00 0.00 0.00 52 1017.9
20260902205114 34 215 6.4 9.7 0.00 0.00 0.00 54 1017.7
20260902204608 35 222 4.8 9.7 0.00 0.00 0.00 51 1017.7
20260902204103 35 218 14.5 16.1 0.00 0.00 0.00 54 1017.8
20260902203559 35 233 6.4 8.0 0.00 0.00 0.00 54 1017.8
20260902203058 35 337 0.0 0.0 0.00 0.00 0.00 51 1017.9
20260902202554 34 276 1.6 1.6 0.00 0.00 0.00 54 1017.6
20260902202050 35 341 0.0 1.6 0.00 0.00 0.00 55 1018.0
20260902201546 35 330 3.2 4.8 0.00 0.00 0.00 53 1017.7
20260902201044 35 153 8.0 9.7 0.00 0.00 0.00 54 1017.9
20260902200540 35 239 4.8 8.0 0.00 0.00 0.00 51 1018.0
20260902200036 36 338 3.2 4.8 0.00 0.00 0.00 50 1018.1
20260902195526 35 305 4.8 8.0 0.00 0.00 0.00 52 1018.1
20260902195024 36 326 3.2 4.8 0.00 0.00 0.00 50 1018.0
20260902194518 36 234 1.6 3.2 0.00 0.00 0.00 52 1017.9
20260902194014 36 329 0.0 1.6 0.00 0.00 0.00 51 1018.3
20260902193509 36 252 4.8 4.8 0.00 0.00 0.00 50 1018.2
20260902193009 36 245 1.6 3.2 0.00 0.00 0.00 52 1018.4
20260902192507 35 344 0.0 0.0 0.00 0.00 0.00 51 1018.3
20260902192006 35 12 4.8 4.8 0.00 0.00 0.00 52 1018.3
20260902191502 35 231 4.8 8.0 0.00 0.00 0.00 53 1018.4
20260902190956 35 344 1.6 1.6 0.00 0.00 0.00 52 1018.5
20260902190452 36 291 0.0 1.6 0.00 0.00 0.00 52 1018.5
20260902185947 35 290 4.8 4.8 0.00 0.00 0.00 52 1018.4
20260902185443 35 276 3.2 4.8 0.00 0.00 0.00 56 1018.7
20260902184938 35 276 4.8 8.0 0.00 0.00 0.00 52 1018.7
20260902184433 35 349 0.0 1.6 0.00 0.00 0.00 54 1018.7
20260902183929 35 345 4.8 8.0 0.00 0.00 0.00 54 1018.9
20260902183425 35 286 3.2 3.2 0.00 0.00 0.00 53 1018.9
20260902182921 35 234 8.0 9.7 0.00 0.00 0.00 53 1018.8
20260902182418 35 206 11.3 12.9 0.00 0.00 0.00 54 1018.8
20260902181914 35 192 9.7 12.9 0.00 0.00 0.00 53 1019.0
20260902181409 35 346 0.0 0.0 0.00 0.00 0.00 53 1018.8
20260902180908 34 237 8.0 11.3 0.00 0.00 0.00 54 1019.0
20260902180404 35 328 1.6 3.2 0.00 0.00 0.00 54 1019.1
20260902175859 35 176 8.0 9.7 0.00 0.00 0.00 53 1018.9
20260902175354 35 216 8.0 11.3 0.00 0.00 0.00 54 1019.0
20260902174850 34 329 0.0 0.0 0.00 0.00 0.00 55 1019.2
20260902174347 34 256 8.0 12.9 0.00 0.00 0.00 53 1019.0
20260902173843 35 159 12.9 16.1 0.00 0.00 0.00 53 1019.2
20260902173342 35 247 8.0 9.7 0.00 0.00 0.00 54 1019.3
20260902172837 35 12 1.6 3.2 0.00 0.00 0.00 53 1019.3
20260902172336 35 339 3.2 4.8 0.00 0.00 0.00 54 1019.5
20260902171831 34 212 6.4 9.7 0.00 0.00 0.00 55 1019.4
20260902171326 34 221 4.8 8.0 0.00 0.00 0.00 56 1019.5
20260902170818 34 249 3.2 4.8 0.00 0.00 0.00 57 1019.5
20260902170312 35 316 1.6 4.8 0.00 0.00 0.00 55 1019.3
20260902165808 34 273 4.8 8.0 0.00 0.00 0.00 56 1019.6
20260902165309 35 238 8.0 9.7 0.00 0.00 0.00 53 1019.5
20260902164802 34 331 1.6 3.2 0.00 0.00 0.00 58 1019.7
20260902164257 34 266 4.8 8.0 0.00 0.00 0.00 54 1019.4
20260902163751 34 39 3.2 4.8 0.00 0.00 0.00 56 1019.8
20260902163251 33 179 3.2 3.2 0.00 0.00 0.00 56 1019.6
20260902162749 34 292 3.2 3.2 0.00 0.00 0.00 57 1019.7
20260902162244 34 257 1.6 3.2 0.00 0.00 0.00 56 1019.7
20260902161739 34 334 4.8 8.0 0.00 0.00 0.00 56 1019.8
20260902161235 33 349 1.6 1.6 0.00 0.00 0.00 58 1019.8
20260902160731 33 258 0.0 3.2 0.00 0.00 0.00 58 1019.9
20260902160225 34 322 0.0 0.0 0.00 0.00 0.00 57 1020.0
20260902155723 34 339 0.0 0.0 0.00 0.00 0.00 59 1019.8
20260902155222 33 318 0.0 0.0 0.00 0.00 0.00 58 1019.8
20260902154718 33 300 0.0 0.0 0.00 0.00 0.00 63 1020.1
20260902154212 33 293 6.4 9.7 0.00 0.00 0.00 58 1020.1
20260902153706 33 288 3.2 4.8 0.00 0.00 0.00 61 1020.1
20260902153201 32 290 3.2 3.2 0.00 0.00 0.00 60 1020.0
20260902152657 33 346 0.0 1.6 0.00 0.00 0.00 64 1020.1
20260902152152 33 324 3.2 4.8 0.00 0.00 0.00 63 1020.2
20260902151648 32 334 0.0 0.0 0.00 0.00 0.00 64 1020.1
20260902151143 31 321 1.6 3.2 0.00 0.00 0.00 69 1020.1
20260902150638 31 319 0.0 1.6 0.00 0.00 0.00 67 1020.1
20260902150133 31 325 3.2 3.2 0.00 0.00 0.00 69 1019.9
20260902145632 31 214 8.0 9.7 0.00 0.00 0.00 70 1020.1
20260902145132 31 283 1.6 3.2 0.00 0.00 0.00 71 1020.1
20260902144630 31 205 3.2 4.8 0.00 0.00 0.00 70 1020.3
20260902144130 31 275 0.0 0.0 0.00 0.00 0.00 72 1020.1
20260902143624 31 316 0.0 0.0 0.00 0.00 0.00 71 1020.3
20260902143120 31 356 0.0 0.0 0.00 0.00 0.00 72 1020.2
20260902142615 30 344 0.0 0.0 0.00 0.00 0.00 74 1020.1
20260902142111 30 210 6.4 8.0 0.00 0.00 0.00 75 1020.3
20260902141610 29 282 3.2 3.2 0.00 0.00 0.00 75 1020.2
20260902141107 29 269 0.0 0.0 0.00 0.00 0.00 77 1020.1
20260902140601 28 317 1.6 3.2 0.00 0.00 0.00 78 1020.0
20260902140056 28 339 0.0 0.0 0.00 0.00 0.00 78 1020.1
20260902135550 28 302 0.0 0.0 0.00 0.00 0.00 80 1020.3
20260902135044 28 350 0.0 0.0 0.00 0.00 0.00 81 1020.1
20260902134540 27 272 4.8 4.8 0.00 0.00 0.00 80 1019.9
20260902134035 27 309 1.6 3.2 0.00 0.00 0.00 82 1020.0
20260902133529 27 312 1.6 3.2 0.00 0.00 0.00 83 1020.1
20260902133024 26 319 0.0 0.0 0.00 0.00 0.00 84 1020.1
20260902132519 26 290 0.0 0.0 0.00 0.00 0.00 84 1020.1
20260902132015 26 335 1.6 1.6 0.00 0.00 0.00 86 1020.1
20260902131511 26 355 0.0 0.0 0.00 0.00 0.00 88 1020.3
20260902131010 25 343 0.0 0.0 0.00 0.00 0.00 88 1020.1
20260902130506 25 311 0.0 0.0 0.00 0.00 0.00 91 1019.9
20260902130001 24 1 0.0 0.0 0.00 0.00 0.00 93 1020.2
20260902125452 23 357 0.0 0.0 0.00 0.00 0.00 96 1020.1
20260902124947 23 23 0.0 0.0 0.00 0.00 0.00 98 1019.9
20260902124443 22 8 0.0 0.0 0.00 0.00 0.00 99 1020.1
20260902123938 22 357 0.0 0.0 0.00 0.00 0.00 99 1020.1
20260902123434 22 354 0.0 0.0 0.00 0.00 0.00 99 1020.1
20260902122932 22 345 0.0 0.0 0.00 0.00 0.00 99 1019.7
20260902122428 21 347 0.0 0.0 0.00 0.00 0.00 99 1019.8
20260902121924 21 353 0.0 0.0 0.00 0.00 0.00 99 1020.0
20260902121419 21 356 0.0 0.0 0.00 0.00 0.00 99 1019.8
20260902120913 21 7 0.0 0.0 0.00 0.00 0.00 99 1019.8
20260902120410 21 3 0.0 0.0 0.00 0.00 0.00 99 1019.8
20260902115909 21 340 0.0 0.0 0.00 0.00 0.00 99 1019.8
20260902115405 21 343 0.0 0.0 0.00 0.00 0.00 99 1019.9
20260902114902 20 345 0.0 0.0 0.00 0.00 0.00 99 1019.6
20260902114357 20 343 0.0 0.0 0.00 0.00 0.00 99 1019.6
20260902113857 20 344 0.0 0.0 0.00 0.00 0.00 99 1019.6
20260902113353 20 346 0.0 0.0 0.00 0.00 0.00 99 1019.6
20260902112852 20 348 0.0 0.0 0.00 0.00 0.00 99 1019.7
20260902112349 20 347 0.0 0.0 0.00 0.00 0.00 99 1019.4
20260902111844 20 345 0.0 0.0 0.00 0.00 0.00 99 1019.4
20260902111341 20 344 0.0 0.0 0.00 0.00 0.00 99 1019.3
20260902110836 20 345 0.0 0.0 0.00 0.00 0.00 99 1019.3
20260902110332 20 345 0.0 0.0 0.00 0.00 0.00 99 1019.3
20260902105832 20 345 0.0 0.0 0.00 0.00 0.00 99 1019.2
20260902105326 20 345 0.0 0.0 0.00 0.00 0.00 99 1019.3
20260902104821 20 344 0.0 0.0 0.00 0.00 0.00 99 1019.3
20260902104318 20 345 0.0 0.0 0.00 0.00 0.00 99 1019.4
20260902103812 20 345 0.0 0.0 0.00 0.00 0.00 99 1019.2
20260902103307 20 345 0.0 0.0 0.00 0.00 0.00 99 1019.4
20260902102802 20 345 0.0 0.0 0.00 0.00 0.00 99 1019.4
20260902102300 20 344 0.0 0.0 0.00 0.00 0.00 99 1019.2
20260902101755 20 347 0.0 0.0 0.00 0.00 0.00 99 1019.3
20260902101250 20 343 0.0 0.0 0.00 0.00 0.00 99 1019.3
20260902100749 20 345 0.0 0.0 0.00 0.00 0.00 99 1019.2
20260902100248 20 345 0.0 0.0 0.00 0.00 0.00 99 1019.3
20260902095743 20 345 0.0 0.0 0.00 0.00 0.00 99 1019.2
20260902095238 21 341 0.0 0.0 0.00 0.00 0.00 99 1019.2
20260902094732 21 347 0.0 0.0 0.00 0.00 0.00 99 1019.2
20260902094229 21 347 0.0 0.0 0.00 0.00 0.00 99 1019.1
20260902093727 20 347 0.0 0.0 0.00 0.00 0.00 99 1019.3
20260902093223 20 344 0.0 0.0 0.00 0.00 0.00 99 1019.3
20260902092718 20 346 0.0 0.0 0.00 0.00 0.00 99 1019.1
20260902092213 21 348 0.0 0.0 0.00 0.00 0.00 99 1019.2
20260902091712 20 344 0.0 0.0 0.00 0.00 0.00 99 1019.1
20260902091209 20 344 0.0 0.0 0.00 0.00 0.00 99 1019.2
20260902090705 20 344 0.0 0.0 0.00 0.00 0.00 99 1018.9
20260902090203 20 344 0.0 0.0 0.00 0.00 0.00 99 1019.0
20260902085658 20 344 0.0 0.0 0.00 0.00 0.00 99 1018.9
20260902085153 20 344 0.0 0.0 0.00 0.00 0.00 99 1018.9
20260902084649 20 344 0.0 0.0 0.00 0.00 0.00 99 1018.7
20260902084145 20 346 0.0 0.0 0.00 0.00 0.00 99 1018.8
20260902083640 21 345 0.0 0.0 0.00 0.00 0.00 99 1018.6
20260902083139 20 344 0.0 0.0 0.00 0.00 0.00 99 1018.6
20260902082635 20 344 0.0 0.0 0.00 0.00 0.00 99 1018.7
20260902082131 20 344 0.0 0.0 0.00 0.00 0.00 99 1018.6
20260902081628 20 344 0.0 0.0 0.00 0.00 0.00 99 1018.4
20260902081122 20 344 0.0 0.0 0.00 0.00 0.00 99 1018.4
20260902080617 20 344 0.0 0.0 0.00 0.00 0.00 99 1018.5
20260902080114 20 344 0.0 0.0 0.00 0.00 0.00 99 1018.4
20260902075613 20 344 0.0 0.0 0.00 0.00 0.00 99 1018.3
20260902075110 20 344 0.0 0.0 0.00 0.00 0.00 99 1018.5
20260902074605 21 344 0.0 0.0 0.00 0.00 0.00 99 1018.4
20260902074100 21 344 0.0 0.0 0.00 0.00 0.00 99 1018.4
20260902073555 21 343 0.0 0.0 0.00 0.00 0.00 99 1018.3
20260902073052 21 345 0.0 0.0 0.00 0.00 0.00 99 1018.5
20260902072547 21 343 0.0 0.0 0.00 0.00 0.00 99 1018.5
20260902072044 21 344 0.0 0.0 0.00 0.00 0.00 99 1018.5
20260902071543 21 341 0.0 0.0 0.00 0.00 0.00 99 1018.3
20260902071039 21 343 0.0 0.0 0.00 0.00 0.00 99 1018.4
20260902070534 21 343 0.0 0.0 0.00 0.00 0.00 99 1018.4
20260902070030 21 345 0.0 0.0 0.00 0.00 0.00 99 1018.2
20260902065529 21 345 0.0 0.0 0.00 0.00 0.00 99 1018.1
20260902065024 21 345 0.0 0.0 0.00 0.00 0.00 99 1018.3
20260902064520 21 345 0.0 0.0 0.00 0.00 0.00 99 1018.4
20260902064015 21 346 0.0 0.0 0.00 0.00 0.00 99 1018.5
20260902063515 21 346 0.0 0.0 0.00 0.00 0.00 99 1018.2
20260902063010 21 345 0.0 0.0 0.00 0.00 0.00 99 1018.5
20260902062508 21 343 0.0 0.0 0.00 0.00 0.00 99 1018.4
20260902062004 21 343 0.0 0.0 0.00 0.00 0.00 99 1018.2
20260902061459 21 343 0.0 0.0 0.00 0.00 0.00 99 1018.4
20260902060955 21 343 0.0 0.0 0.00 0.00 0.00 99 1018.4
20260902060451 21 343 0.0 0.0 0.00 0.00 0.00 99 1018.4
20260902055947 21 343 0.0 0.0 0.00 0.00 0.00 99 1018.4
20260902055443 21 343 0.0 0.0 0.00 0.00 0.00 99 1018.6
20260902054938 21 343 0.0 0.0 0.00 0.00 0.00 99 1018.5
20260902054432 21 343 0.0 0.0 0.00 0.00 0.00 99 1018.6
20260902053928 21 343 0.0 0.0 0.00 0.00 0.00 99 1018.6
20260902053423 21 343 0.0 0.0 0.00 0.00 0.00 99 1018.5
20260902052922 21 343 0.0 0.0 0.00 0.00 0.00 99 1018.5
20260902052418 21 343 0.0 0.0 0.00 0.00 0.00 99 1018.5
20260902051913 21 343 0.0 0.0 0.00 0.00 0.00 99 1018.7
20260902051408 21 343 0.0 0.0 0.00 0.00 0.00 99 1018.7
20260902050907 22 343 0.0 0.0 0.00 0.00 0.00 99 1018.3
20260902050407 22 343 0.0 0.0 0.00 0.00 0.00 99 1018.5
20260902045902 22 343 0.0 0.0 0.00 0.00 0.00 99 1018.4
20260902045357 22 344 0.0 0.0 0.00 0.00 0.00 99 1018.6
20260902044854 22 343 0.0 0.0 0.00 0.00 0.00 99 1018.6
20260902044349 22 343 0.0 0.0 0.00 0.00 0.00 99 1018.5
20260902043848 22 343 0.0 0.0 0.00 0.00 0.00 99 1018.3
20260902043344 22 343 0.0 0.0 0.00 0.00 0.00 99 1018.4
20260902042839 22 343 0.0 0.0 0.00 0.00 0.00 99 1018.5
20260902042338 22 343 0.0 0.0 0.00 0.00 0.00 99 1018.5
20260902041834 22 343 0.0 0.0 0.00 0.00 0.00 99 1018.5
20260902041333 22 343 0.0 0.0 0.00 0.00 0.00 99 1018.7
20260902040832 22 344 0.0 0.0 0.00 0.00 0.00 99 1018.8
20260902040328 22 344 0.0 0.0 0.00 0.00 0.00 99 1018.7
20260902035826 22 344 0.0 0.0 0.00 0.00 0.00 98 1018.6
20260902035322 22 344 0.0 0.0 0.00 0.00 0.00 98 1018.5
20260902034820 22 344 0.0 0.0 0.00 0.00 0.00 98 1018.5
20260902034316 22 344 0.0 0.0 0.00 0.00 0.00 98 1018.5
20260902033814 22 344 0.0 0.0 0.00 0.00 0.00 98 1018.4
20260902033310 22 344 0.0 0.0 0.00 0.00 0.00 98 1018.4
20260902032808 22 343 0.0 0.0 0.00 0.00 0.00 98 1018.5
20260902032306 22 343 0.0 0.0 0.00 0.00 0.00 97 1018.5
20260902031803 22 344 0.0 0.0 0.00 0.00 0.00 97 1018.6
20260902031259 22 344 0.0 0.0 0.00 0.00 0.00 97 1018.5
20260902030754 23 344 0.0 0.0 0.00 0.00 0.00 97 1018.5
20260902030249 23 344 0.0 0.0 0.00 0.00 0.00 96 1018.6
20260902025749 23 344 0.0 0.0 0.00 0.00 0.00 96 1018.7
20260902025244 23 344 0.0 0.0 0.00 0.00 0.00 96 1018.6
20260902024744 23 343 0.0 0.0 0.00 0.00 0.00 96 1018.5
20260902024239 23 344 0.0 0.0 0.00 0.00 0.00 96 1018.7
20260902023735 23 344 0.0 0.0 0.00 0.00 0.00 96 1018.6
20260902023230 23 344 0.0 0.0 0.00 0.00 0.00 96 1018.7
20260902022730 23 343 0.0 0.0 0.00 0.00 0.00 96 1018.6
20260902022225 23 346 0.0 0.0 0.00 0.00 0.00 96 1018.5
20260902021721 23 345 0.0 0.0 0.00 0.00 0.00 95 1018.7
20260902021221 23 346 0.0 0.0 0.00 0.00 0.00 95 1018.5
20260902020717 23 346 0.0 0.0 0.00 0.00 0.00 94 1018.5
20260902020213 23 343 0.0 0.0 0.00 0.00 0.00 94 1018.4
20260902015708 24 343 0.0 0.0 0.00 0.00 0.00 94 1018.6
20260902015205 23 343 0.0 0.0 0.00 0.00 0.00 94 1018.4
20260902014700 24 343 0.0 0.0 0.00 0.00 0.00 94 1018.5
20260902014156 24 343 0.0 0.0 0.00 0.00 0.00 93 1018.4
20260902013655 24 343 0.0 0.0 0.00 0.00 0.00 93 1018.5
20260902013151 24 343 0.0 0.0 0.00 0.00 0.00 92 1018.5
20260902012646 24 343 0.0 0.0 0.00 0.00 0.00 92 1018.1
20260902012142 25 343 0.0 0.0 0.00 0.00 0.00 91 1018.2